Weather History for Chanute, KS

Change the Weather History Date:

Sunday, January 26, 2014

  Actual Average Record
Temperature  
Mean Temperature 44 °F 33 °F  
Max Temperature 61 °F 43 °F 73 °F (1911)
Min Temperature 27 °F 23 °F -4 °F (1963)
Degree Days  
Heating Degree Days 21 32  
Month to date heating degree days 894 852  
Since 1 July heating degree days 2847 2645  
Cooling Degree Days 0 0  
Month to date cooling degree days 0 0  
Year to date cooling degree days 0 0  
Moisture  
Dew Point 24 °F    
Average Humidity 51    
Maximum Humidity 78    
Minimum Humidity 23    
Precipitation  
Precipitation 0.00 in 0.05 in 1.30 in (1916)
Month to date precipitation 0.11 1.03  
Year to date precipitation 0.11 1.03  
Sea Level Pressure  
Sea Level Pressure 29.82 in    
Wind  
Wind Speed 12 mph (NW)    
Max Wind Speed 37 mph    
Max Gust Speed 49 mph    
Visibility 10 miles    
Events      
T = Trace of Precipitation, MM = Missing Value Source: NWS Daily Summary

Daily Weather History Graph

Daily Weather History Graph

Search for Another Location

Airport:

Trip Planner

Search our weather history database for the weather conditions in past years. The results will help you decide how hot, cold, wet, or windy it might be!

Date:

Astronomy

Jan. 26, 2014 Rise Set
Actual Time 7:30 AM CST 5:39 PM CST
Civil Twilight 7:02 AM CST 6:07 PM CST
Nautical Twilight 6:30 AM CST 6:38 PM CST
Astronomical Twilight 5:59 AM CST 7:09 PM CST
Moon 3:08 AM CST (1/26) 1:29 PM CST (1/26)
Length of Visible Light 11h 04m
Length of Day
10h 08m
Waning Crescent, 23% of the Moon is Illuminated
Jan 26
Waning Crescent
Jan 30
New
Feb 6
First Quarter
Feb 14
Full
Feb 22
Last Quarter

Hourly Weather History & Observations

Time (CST) Temp. Windchill Dew Point Humidity Pressure Visibility Wind Dir Wind Speed Gust Speed Precip Events Conditions
12:52 AM 34.0 °F 26.0 °F 27.0 °F 75% 29.82 in 10.0 mi South 10.4 mph - N/A   Clear
1:52 AM 34.0 °F 24.6 °F 27.0 °F 75% 29.79 in 10.0 mi SSW 13.8 mph - N/A   Clear
2:52 AM 36.0 °F 25.6 °F 28.0 °F 73% 29.78 in 10.0 mi SSW 18.4 mph 26.5 mph N/A   Clear
3:52 AM 36.0 °F 27.1 °F 28.9 °F 76% 29.77 in 10.0 mi SSW 13.8 mph - N/A   Clear
4:52 AM 35.1 °F 26.9 °F 28.0 °F 76% 29.77 in 10.0 mi SW 11.5 mph - N/A   Clear
5:52 AM 35.1 °F 26.9 °F 28.0 °F 76% 29.76 in 10.0 mi SW 11.5 mph - N/A   Clear
6:52 AM 35.1 °F 27.4 °F 28.0 °F 76% 29.76 in 10.0 mi SW 10.4 mph - N/A   Clear
7:52 AM 35.1 °F 29.3 °F 28.0 °F 76% 29.79 in 10.0 mi North 6.9 mph - N/A   Clear
8:52 AM 39.0 °F 35.7 °F 30.0 °F 70% 29.77 in 10.0 mi SSW 4.6 mph - N/A   Clear
9:52 AM 48.0 °F - 30.9 °F 52% 29.77 in 10.0 mi Variable 5.8 mph - N/A   Clear
10:52 AM 55.0 °F - 30.0 °F 38% 29.78 in 10.0 mi NNW 12.7 mph - N/A   Clear
11:52 AM 57.9 °F - 30.0 °F 35% 29.76 in 10.0 mi NNW 10.4 mph - N/A   Clear
12:52 PM 59.0 °F - 28.0 °F 31% 29.73 in 10.0 mi NNW 12.7 mph - N/A   Clear
1:52 PM 61.0 °F - 27.0 °F 27% 29.71 in 10.0 mi NW 8.1 mph - N/A   Clear
2:52 PM 60.1 °F - 26.1 °F 27% 29.71 in 10.0 mi NNW 11.5 mph - N/A   Clear
3:52 PM 60.1 °F - 23.0 °F 24% 29.71 in 10.0 mi NNW 9.2 mph 20.7 mph N/A   Clear
4:52 PM 57.9 °F - 23.0 °F 26% 29.71 in 10.0 mi North 8.1 mph - N/A   Clear
5:52 PM 48.9 °F - 23.0 °F 36% 29.73 in 10.0 mi North 3.5 mph - N/A   Clear
6:52 PM 37.0 °F 33.3 °F 21.9 °F 54% 29.78 in 10.0 mi WNW 4.6 mph - N/A   Clear
7:52 PM 35.1 °F 31.0 °F 21.9 °F 59% 29.83 in 10.0 mi WNW 4.6 mph - N/A   Partly Cloudy
8:24 PM 43.0 °F 32.7 °F 26.1 °F 51% 29.92 in 10.0 mi North 28.8 mph 44.9 mph N/A   Mostly Cloudy
8:52 PM 37.9 °F 27.6 °F 26.1 °F 62% 29.99 in 10.0 mi North 20.7 mph 41.4 mph N/A   Clear
9:04 PM 37.0 °F 25.6 °F 25.0 °F 62% 29.99 in 10.0 mi North 24.2 mph 39.1 mph N/A   Partly Cloudy
9:52 PM 36.0 °F 23.9 °F 12.9 °F 39% 30.05 in 10.0 mi North 25.3 mph 43.7 mph N/A   Overcast
10:52 PM 30.9 °F 18.1 °F 3.0 °F 31% 30.10 in 10.0 mi North 21.9 mph 35.7 mph N/A   Overcast
11:52 PM 28.0 °F 12.3 °F 5.0 °F 38% 30.17 in 10.0 mi North 29.9 mph 39.1 mph N/A   Overcast